Starlink 11638

operational
NORAD ID: 63269 Int'l Des: 2025-053 Owner: SPXS Country: US Constellation: starlink
LEOCIRCULAR

Über Starlink 11638

Beschreibung wird geladen...

Live-Position

3D-Globus wird geladen...

Nächste Überflüge

Höhenverlauf

Altitude vs Time

uPlot chart will show altitude changes over time

Zweizeiliger Elementsatz

1 63269U 25053E 25354.02792832 .00081290 00000-0 63005-3 0 9990
2 63269 42.9994 232.1438 0001937 273.1535 86.9111 15.70868643 45142
Epoch: 20. Dez. 2025 • Age: 23 hours

Aktueller Status

Höhe 355.3 km
Geschwindigkeit 7.70 km/s
Subsatellitenpunkt 3.32°N, 146.45°E
Startdatum 15. März 2025
Alter 0.7 years
Typ internet

Technische Details

Klassifizierung Payload
Masse 960.00 kg
Trockenmasse 910.00 kg
Gesamtmasse 960.00 kg
Länge 0.30 m
Durchmesser 4.10 m
Spannweite 29.00 m
Form Box + pan
Hersteller SPXS
Bus-Typ Starlink V2MD
Phasenstatus In Orbit
Besitzer/Staat SPXS/US

Große Konstellationen

Loading constellations...